Wind_Speed
12 9 10 11 13 11 14 19 25 22 11 8 5 7 7 6 5 6 11 7 9 8 7 5 4 4 4 4 3 5 6 7 8 9 10 10 11 11 11 10 10 11 10 10 10 10 10 10 8
13 8 9 8 2 5 11 22 21 21 9 4 2 0 8 13 12 6 11 9 8 9 8 7 6 5 5 5 4 4 6 6 7 7 8 9 8 8 9 10 10 10 9 9 10 10 10 11 10
13 9 8 7 3 4 8 22 22 15 7 8 1 4 4 9 8 9 7 7 9 10 9 8 7 5 5 5 5 5 5 5 5 6 6 6 6 7 9 10 10 10 9 9 8 9 9 10 9
16 12 9 7 3 8 13 20 12 6 4 5 2 4 3 5 8 14 10 12 12 13 12 10 10 8 7 8 7 6 5 4 4 5 4 3 6 8 9 11 11 10 10 10 10 9 8 8 8
21 18 12 3 4 10 17 12 13 15 9 3 6 6 4 5 6 7 8 12 13 14 14 13 13 13 12 11 10 8 6 5 4 3 2 3 7 9 9 9 9 10 11 11 12 11 11 10 9
24 23 12 4 6 10 11 8 18 10 3 6 15 11 10 12 14 11 9 9 9 13 17 16 14 14 13 13 12 9 7 4 1 1 3 7 8 8 8 8 8 9 10 10 10 11 11 11 9
24 24 13 5 8 10 7 8 8 6 4 11 7 7 6 14 15 21 15 11 11 12 13 15 14 14 12 13 12 9 5 3 2 1 5 9 9 7 8 6 6 7 9 9 6 8 9 8 8
22 28 19 8 7 13 10 15 2 6 8 14 11 8 6 14 9 13 17 12 12 14 15 14 14 15 14 13 9 7 5 3 2 3 7 9 9 7 6 5 5 6 6 12 11 7 8 7 7
19 31 20 12 10 10 12 8 5 11 6 16 17 12 4 9 11 8 13 11 13 15 16 16 16 14 11 9 9 8 5 2 3 5 7 7 7 7 5 4 5 6 6 7 9 8 9 9 8
17 31 21 18 12 9 6 2 7 14 17 17 18 16 17 9 11 6 8 9 12 13 13 13 11 10 9 9 7 5 3 2 4 4 5 6 6 6 6 5 6 6 7 8 8 8 8 8 10
15 32 26 22 16 2 6 2 9 14 18 19 17 27 15 15 10 12 5 9 9 9 11 9 8 7 5 5 5 5 4 4 3 3 5 5 5 5 7 7 6 7 9 10 10 9 9 11 11
15 39 33 23 24 13 2 14 12 18 16 19 23 28 20 6 9 11 4 4 10 12 7 7 7 7 5 6 7 8 6 5 5 4 4 4 5 6 5 6 7 8 10 9 11 10 12 12 12
19 38 38 32 29 22 12 6 18 20 22 23 21 23 25 8 10 10 9 4 3 8 10 6 7 9 5 8 9 10 9 9 8 7 5 4 5 6 6 6 6 7 9 10 12 11 12 12 14
23 35 38 42 37 32 27 16 19 21 17 18 14 14 16 11 17 18 13 9 4 3 6 6 6 10 8 10 12 12 12 12 11 9 8 6 6 4 5 6 7 8 9 11 11 11 11 12 15
17 25 31 36 39 36 35 26 21 17 13 9 6 13 16 13 14 17 20 16 9 5 3 4 3 6 11 10 13 14 16 14 12 11 11 11 9 8 8 9 8 9 10 10 11 12 15 16 15
13 11 14 30 27 25 25 22 15 17 17 4 6 14 16 20 14 10 12 18 18 17 12 10 8 2 6 9 12 17 18 17 16 13 14 15 13 13 14 14 14 14 13 15 15 15 16 15 17
13 14 18 18 16 17 8 3 8 17 15 7 9 12 15 18 24 18 16 20 19 23 24 14 13 13 10 9 9 13 18 21 20 17 17 17 17 17 17 16 15 16 15 17 18 17 16 16 17
13 18 22 20 13 13 9 11 16 11 15 15 20 20 14 17 12 19 17 18 23 29 32 29 21 17 21 20 18 17 15 20 22 23 21 20 19 19 19 17 17 16 16 18 18 17 16 17 18
23 27 24 23 8 8 7 12 11 23 23 23 26 23 25 29 30 22 22 19 20 21 21 28 29 29 28 31 31 27 24 23 21 23 26 23 22 21 19 20 18 17 17 18 18 17 16 17 19
29 27 21 20 17 14 12 21 25 25 29 28 32 32 34 24 30 28 27 28 28 29 26 27 24 22 20 25 30 32 35 33 27 22 21 24 24 23 22 21 20 19 20 19 18 19 19 18 20
26 25 19 19 27 25 27 24 27 27 27 30 33 36 37 39 33 31 36 35 33 35 36 35 31 30 28 29 28 31 31 28 26 22 24 26 26 24 23 23 22 22 21 22 21 21 21 21 20
28 25 27 31 33 34 33 34 34 34 34 37 39 42 44 47 43 44 44 39 38 41 42 43 43 43 40 38 36 37 39 40 38 29 30 27 26 29 28 26 25 23 24 25 24 24 23 21 25
24 27 28 29 30 34 35 41 43 41 39 44 44 43 41 49 54 52 48 47 48 49 47 48 47 44 42 44 48 48 48 50 50 41 38 34 34 31 31 33 30 25 29 30 28 25 26 24 21
24 23 27 27 27 27 26 33 40 38 39 43 43 40 40 41 44 52 54 55 54 55 56 56 53 57 58 50 50 51 58 62 59 43 45 40 41 40 36 35 36 31 33 33 33 27 26 28 27
19 21 23 27 25 29 32 34 43 38 38 43 47 46 46 46 45 46 45 46 48 52 56 55 52 51 51 49 50 50 53 56 60 54 45 41 46 49 47 43 40 42 42 41 40 32 29 29 28
26 27 26 28 28 29 33 37 33 32 36 41 46 48 48 49 49 46 48 50 49 51 53 57 58 57 56 55 55 55 55 56 57 59 60 61 56 55 57 51 46 47 48 49 45 42 38 31 29
30 30 29 25 24 34 37 38 41 37 37 45 46 48 47 48 52 53 51 48 51 52 56 58 60 61 62 62 61 59 59 61 64 65 69 63 55 62 67 60 40 46 49 55 45 45 45 36 29
30 28 27 25 28 33 38 41 45 45 44 43 41 44 47 51 48 46 51 52 53 55 56 58 62 64 65 68 66 64 65 65 65 66 68 60 56 45 56 67 48 58 45 55 50 53 47 43 37
34 34 33 33 34 36 40 44 43 43 45 47 49 49 49 50 49 51 52 57 57 59 62 63 64 69 71 73 73 73 72 71 65 59 56 54 53 48 39 38 35 48 52 59 53 53 49 43 41
41 40 41 40 36 35 41 43 42 43 43 44 46 49 51 53 56 59 61 62 62 64 65 67 66 64 69 72 70 70 74 75 71 66 59 54 52 48 47 39 41 41 55 41 33 37 38 50 43
Wind_Direction
194 191 177 188 180 276 161 175 160 166 168 145 161 270 296 339 356 321 287 279 286 285 300 304 301 307 307 311 315 339 345 345 345 340 332 330 332 338 346 355 4 6 18 27 41 56 69 71 64
196 192 187 181 289 317 311 5 250 166 172 147 217 86 308 333 339 328 311 325 300 288 294 288 290 298 305 309 319 342 334 330 337 329 327 330 332 346 354 0 4 13 25 39 48 58 67 66 59
191 171 176 156 168 329 1 28 354 147 180 238 316 56 319 312 288 287 313 312 303 305 299 294 291 285 282 283 293 309 307 314 320 317 324 326 334 355 358 6 15 30 41 44 46 55 58 67 60
180 162 150 135 139 44 35 16 64 131 74 339 300 77 54 325 290 278 291 283 288 299 292 284 279 270 272 274 277 283 283 284 290 309 322 334 340 350 7 20 27 42 45 46 46 39 36 42 42
177 168 142 102 92 44 57 35 359 45 41 121 319 339 12 338 320 315 293 286 294 291 281 281 276 276 272 265 271 263 249 259 289 297 297 328 344 355 11 28 53 54 51 46 46 46 42 36 26
183 172 134 229 32 40 56 27 357 343 17 240 280 289 286 302 315 319 314 326 307 296 289 282 280 278 271 260 253 244 250 263 237 255 306 327 339 356 12 42 53 50 45 43 48 47 43 43 48
197 163 137 128 26 53 48 41 10 310 315 315 262 252 279 297 293 299 317 314 305 302 300 291 273 272 261 253 249 249 242 208 221 255 310 325 341 2 11 36 50 57 47 39 49 51 46 39 37
212 160 137 145 124 65 61 55 35 315 336 331 229 273 307 345 337 311 310 307 295 294 289 280 274 272 267 256 242 237 222 207 241 303 321 332 345 3 5 34 40 51 54 44 34 24 18 19 20
214 170 150 181 102 98 55 46 2 306 293 309 326 280 324 0 319 326 304 302 295 283 276 272 269 270 267 254 247 225 222 209 271 320 325 342 351 355 2 3 15 14 13 11 13 24 23 13 3
215 176 166 183 137 115 99 293 339 289 287 300 312 292 298 285 295 302 291 293 288 274 273 274 264 262 257 250 241 237 220 247 309 324 329 339 351 350 342 336 354 353 0 4 4 0 350 353 346
205 171 176 187 179 116 45 334 272 278 283 306 327 323 286 288 351 327 336 291 292 289 272 262 263 257 251 250 246 230 223 273 278 305 326 336 338 339 337 331 358 345 354 2 5 9 21 9 3
202 180 183 188 198 172 85 295 255 252 279 296 296 314 303 274 321 298 335 276 310 304 287 294 272 257 249 253 233 231 245 268 261 277 307 324 328 331 320 326 349 338 352 10 6 9 4 351 347
194 190 190 199 200 190 193 278 306 283 268 279 288 294 300 350 344 318 337 335 12 319 318 289 262 265 250 259 250 255 264 277 263 265 273 287 309 323 317 333 331 330 350 349 355 354 351 340 333
198 202 206 212 219 220 216 218 236 249 257 260 271 317 315 342 332 317 307 317 9 357 334 316 291 284 272 249 253 252 262 273 265 263 270 254 265 288 275 300 310 313 322 336 336 335 334 336 336
219 217 225 222 221 228 222 238 239 244 229 261 302 315 329 316 340 306 306 306 327 343 342 324 315 263 280 268 260 257 260 265 265 264 267 267 255 262 257 262 276 299 321 324 322 316 329 333 331
231 233 234 235 241 250 270 272 275 221 224 238 295 306 313 309 314 318 321 322 322 328 322 322 312 242 222 257 264 267 271 272 274 276 272 269 266 259 262 276 286 293 305 310 318 317 314 316 319
213 210 184 177 179 201 238 289 210 224 218 241 281 291 283 290 299 302 303 316 306 321 317 304 296 307 307 274 279 265 266 272 274 274 275 268 258 259 265 272 279 288 296 297 298 304 311 306 305
212 213 205 175 190 217 196 104 95 205 233 238 235 239 272 260 266 262 271 303 315 319 315 312 305 291 303 299 295 291 282 263 263 261 258 258 255 256 260 264 269 274 281 285 291 298 300 297 297
213 219 208 205 174 226 234 149 151 199 216 226 252 245 247 243 234 247 260 254 262 268 282 304 310 313 316 313 307 301 293 287 272 261 263 262 259 256 259 258 256 262 267 273 280 283 286 294 295
222 223 218 211 183 201 178 192 204 218 220 226 230 238 257 247 237 261 273 260 261 258 259 261 267 273 287 295 304 304 308 308 301 282 277 272 263 262 260 260 260 259 262 264 271 278 283 291 306
238 237 234 208 197 207 207 196 200 213 221 229 237 235 245 250 254 262 258 256 261 263 265 265 262 271 262 272 277 283 282 277 279 277 284 282 273 265 262 260 258 260 263 266 270 273 277 283 288
225 226 219 228 214 215 220 220 212 223 227 229 232 240 240 238 239 251 252 256 257 262 270 275 276 274 271 271 265 266 272 273 268 260 251 249 261 275 268 263 262 266 264 265 265 272 278 285 290
237 236 235 233 229 221 227 231 227 229 233 228 231 232 237 240 241 242 250 260 264 264 264 268 269 269 270 277 268 264 261 259 259 255 255 257 255 252 254 266 266 258 259 264 263 264 270 276 286
235 233 244 244 244 237 230 238 238 234 227 223 226 231 236 237 240 243 246 247 255 263 267 267 268 273 275 277 270 271 270 263 265 264 250 247 250 254 246 249 259 260 256 257 261 259 264 272 277
245 239 237 237 241 243 229 229 240 237 233 231 232 233 235 238 244 247 252 253 254 261 264 268 271 273 273 276 281 280 277 282 285 292 273 282 257 247 248 246 247 256 257 255 252 253 260 263 271
250 251 243 242 241 237 233 222 235 242 238 235 235 242 246 247 248 249 251 255 258 263 266 273 275 276 276 279 283 284 280 282 285 288 287 293 291 288 248 239 240 247 254 257 259 256 253 249 260
252 254 259 250 236 235 242 246 241 245 247 246 244 248 248 252 253 254 252 250 253 255 256 261 268 270 272 274 277 280 284 286 285 285 287 289 289 294 259 237 232 243 257 258 257 263 263 264 257
255 256 247 252 250 249 248 245 243 244 251 253 255 252 256 250 245 246 249 247 250 253 254 255 260 262 266 270 270 272 275 276 277 278 279 285 280 278 274 235 221 244 261 261 261 266 267 271 265
248 246 253 260 260 258 258 257 259 258 259 263 269 274 276 280 272 267 269 260 256 254 251 252 256 263 266 268 273 274 275 275 278 277 281 283 281 281 283 256 241 250 248 260 261 263 267 269 267
255 257 259 264 264 263 268 270 272 275 275 274 272 271 271 273 272 273 274 274 272 268 266 267 267 263 266 266 267 269 272 273 274 273 276 281 280 278 278 265 261 266 250 267 292 263 271 276 279
Height
5908 5909 5912 5913 5917 5914 5913 5915 5908 5909 5909 5910 5909 5911 5914 5917 5919 5921 5917 5918 5918 5918 5917 5917 5916 5915 5915 5915 5915 5915 5914 5913 5911 5910 5908 5906 5904 5902 5900 5898 5896 5893 5891 5889 5887 5885 5883 5881 5880
5907 5909 5911 5913 5913 5913 5913 5911 5908 5908 5913 5913 5914 5914 5915 5915 5915 5917 5917 5918 5918 5918 5917 5917 5916 5915 5916 5916 5915 5914 5913 5912 5910 5909 5908 5906 5904 5902 5900 5898 5896 5893 5891 5890 5888 5886 5884 5882 5880
5907 5909 5911 5912 5913 5913 5914 5910 5901 5912 5918 5918 5917 5915 5917 5918 5916 5915 5917 5918 5919 5918 5917 5917 5916 5916 5915 5915 5915 5914 5913 5911 5910 5909 5907 5906 5904 5902 5900 5898 5896 5894 5891 5889 5888 5886 5884 5882 5881
5906 5909 5910 5911 5911 5911 5911 5913 5915 5915 5913 5915 5916 5917 5917 5917 5916 5914 5915 5916 5915 5915 5916 5916 5916 5915 5915 5915 5914 5913 5912 5910 5909 5908 5907 5905 5904 5901 5899 5898 5896 5894 5892 5889 5887 5887 5885 5883 5881
5905 5906 5908 5910 5909 5908 5906 5910 5912 5914 5910 5915 5918 5919 5918 5917 5915 5913 5913 5913 5913 5913 5914 5914 5914 5914 5914 5913 5913 5911 5910 5909 5908 5907 5907 5905 5903 5902 5900 5898 5897 5894 5892 5890 5888 5887 5886 5884 5882
5902 5904 5908 5908 5907 5903 5904 5909 5910 5912 5913 5916 5917 5918 5918 5916 5916 5912 5913 5912 5912 5912 5912 5912 5912 5912 5912 5912 5911 5909 5909 5908 5906 5906 5906 5906 5903 5902 5901 5899 5897 5895 5894 5892 5890 5888 5886 5884 5883
5900 5905 5908 5909 5904 5900 5902 5906 5907 5910 5911 5914 5912 5913 5915 5914 5914 5909 5911 5910 5910 5911 5911 5911 5911 5910 5910 5910 5909 5908 5907 5907 5906 5906 5906 5906 5904 5902 5901 5899 5898 5896 5895 5893 5890 5889 5887 5885 5884
5898 5904 5906 5906 5900 5899 5901 5903 5906 5908 5912 5909 5907 5908 5910 5910 5912 5907 5909 5909 5909 5908 5909 5910 5910 5910 5909 5908 5908 5907 5906 5906 5907 5906 5906 5905 5904 5902 5901 5899 5898 5896 5894 5893 5891 5889 5888 5886 5885
5896 5904 5904 5903 5897 5897 5899 5902 5905 5906 5909 5908 5908 5907 5904 5908 5910 5908 5906 5907 5907 5908 5908 5908 5908 5908 5908 5907 5907 5906 5906 5906 5907 5906 5906 5905 5903 5901 5900 5899 5897 5895 5894 5894 5893 5891 5889 5887 5884
5896 5902 5901 5902 5895 5894 5897 5900 5903 5903 5904 5906 5908 5910 5906 5909 5906 5908 5907 5907 5908 5907 5907 5907 5907 5907 5906 5906 5906 5906 5906 5907 5907 5906 5906 5905 5903 5901 5900 5899 5897 5896 5895 5894 5893 5891 5889 5887 5884
5895 5900 5899 5899 5895 5892 5893 5897 5901 5900 5901 5903 5905 5905 5905 5909 5906 5906 5906 5904 5905 5906 5906 5906 5905 5906 5906 5906 5906 5906 5906 5906 5906 5906 5906 5904 5903 5902 5900 5899 5897 5896 5896 5895 5893 5891 5889 5887 5884
5894 5893 5896 5896 5894 5892 5890 5895 5895 5899 5901 5903 5905 5903 5907 5906 5906 5907 5904 5903 5901 5903 5904 5905 5905 5905 5905 5905 5905 5905 5905 5906 5906 5905 5904 5903 5902 5901 5901 5899 5897 5896 5896 5895 5893 5891 5888 5886 5884
5890 5891 5892 5893 5892 5892 5892 5894 5893 5894 5900 5903 5905 5906 5905 5903 5905 5907 5905 5906 5903 5902 5901 5904 5904 5903 5904 5904 5904 5904 5904 5904 5904 5903 5902 5902 5900 5899 5898 5896 5897 5896 5895 5894 5892 5890 5889 5888 5884
5885 5884 5886 5888 5890 5891 5891 5895 5895 5895 5899 5901 5901 5899 5901 5901 5903 5901 5905 5905 5903 5905 5903 5902 5902 5899 5901 5902 5901 5902 5902 5901 5901 5901 5900 5899 5899 5898 5897 5896 5896 5896 5894 5893 5892 5891 5889 5887 5882
5883 5886 5886 5886 5889 5890 5891 5894 5894 5891 5894 5897 5898 5897 5898 5901 5901 5901 5900 5902 5900 5902 5903 5902 5903 5901 5899 5899 5900 5899 5899 5899 5899 5898 5897 5897 5897 5897 5897 5897 5896 5895 5894 5892 5890 5888 5885 5883 5880
5881 5885 5887 5889 5890 5894 5894 5893 5894 5892 5892 5895 5897 5899 5899 5900 5899 5900 5899 5897 5897 5898 5901 5901 5900 5901 5899 5898 5898 5898 5898 5897 5895 5893 5893 5894 5894 5894 5894 5893 5892 5890 5890 5889 5886 5884 5882 5881 5878
5877 5878 5881 5884 5887 5888 5887 5888 5890 5893 5893 5894 5895 5895 5896 5896 5895 5896 5896 5895 5893 5893 5896 5897 5896 5895 5897 5896 5895 5895 5895 5894 5892 5891 5890 5889 5889 5889 5888 5889 5888 5887 5886 5884 5884 5882 5880 5877 5875
5873 5874 5875 5877 5879 5880 5883 5888 5890 5895 5885 5883 5882 5883 5891 5888 5885 5886 5890 5893 5890 5890 5891 5892 5891 5891 5890 5889 5890 5888 5889 5890 5891 5891 5889 5887 5885 5885 5883 5883 5883 5883 5881 5880 5878 5878 5877 5874 5871
5864 5866 5872 5873 5876 5879 5881 5888 5885 5881 5876 5875 5877 5875 5876 5875 5873 5876 5878 5878 5881 5880 5884 5888 5885 5885 5884 5883 5882 5883 5884 5884 5884 5886 5886 5883 5880 5878 5878 5877 5876 5876 5875 5874 5873 5873 5873 5870 5867
5858 5861 5868 5870 5873 5879 5872 5869 5870 5874 5873 5871 5874 5873 5871 5870 5871 5872 5873 5873 5872 5874 5872 5875 5878 5877 5876 5877 5876 5875 5876 5876 5878 5878 5878 5876 5873 5872 5871 5870 5870 5870 5869 5868 5867 5866 5867 5865 5862
5856 5858 5863 5865 5866 5870 5867 5867 5867 5869 5867 5866 5867 5868 5866 5864 5862 5862 5863 5865 5863 5862 5863 5865 5868 5869 5870 5870 5870 5869 5866 5863 5862 5866 5871 5872 5869 5867 5865 5865 5863 5863 5862 5861 5860 5860 5860 5859 5856
5850 5851 5852 5853 5857 5862 5862 5864 5864 5862 5860 5858 5857 5858 5859 5859 5858 5857 5857 5857 5856 5856 5857 5859 5860 5862 5864 5862 5862 5860 5857 5858 5857 5854 5853 5854 5858 5864 5862 5859 5857 5856 5855 5853 5852 5852 5852 5852 5849
5844 5845 5846 5848 5851 5854 5855 5855 5855 5856 5853 5850 5850 5852 5851 5852 5854 5853 5852 5852 5850 5851 5854 5854 5853 5851 5855 5855 5854 5850 5846 5846 5847 5848 5847 5847 5850 5849 5850 5854 5851 5850 5847 5846 5845 5844 5843 5844 5843
5839 5841 5842 5844 5845 5846 5847 5843 5840 5845 5848 5845 5843 5843 5843 5842 5844 5845 5846 5846 5844 5844 5843 5844 5845 5844 5844 5843 5841 5841 5833 5831 5832 5834 5834 5835 5840 5843 5839 5838 5842 5841 5839 5837 5835 5834 5833 5835 5835
5833 5834 5835 5837 5838 5837 5835 5835 5830 5837 5838 5836 5832 5832 5831 5831 5834 5835 5836 5837 5838 5836 5834 5833 5833 5832 5832 5831 5829 5829 5830 5827 5825 5821 5819 5826 5827 5830 5829 5828 5827 5828 5827 5825 5820 5820 5821 5823 5824
5826 5827 5829 5829 5830 5829 5828 5828 5829 5830 5830 5827 5825 5824 5824 5824 5825 5825 5826 5827 5827 5827 5827 5822 5821 5821 5821 5821 5818 5815 5818 5817 5816 5815 5814 5819 5819 5817 5812 5810 5811 5812 5809 5809 5808 5807 5806 5809 5812
5821 5821 5822 5823 5825 5822 5822 5822 5822 5820 5820 5820 5819 5817 5816 5815 5816 5816 5815 5815 5814 5815 5816 5816 5813 5811 5809 5809 5809 5807 5804 5804 5804 5803 5800 5801 5802 5799 5792 5794 5780 5797 5798 5793 5795 5798 5799 5798 5799
5815 5816 5814 5814 5816 5814 5812 5812 5812 5813 5813 5812 5812 5812 5808 5806 5804 5804 5803 5802 5802 5801 5802 5802 5799 5799 5798 5796 5795 5796 5796 5795 5794 5792 5791 5790 5787 5783 5768 5765 5742 5788 5789 5787 5788 5789 5788 5788 5787
5807 5807 5807 5807 5806 5806 5803 5801 5803 5804 5804 5803 5800 5799 5798 5794 5795 5795 5794 5791 5788 5785 5785 5786 5787 5783 5782 5780 5779 5779 5777 5779 5781 5781 5776 5775 5771 5767 5759 5751 5761 5775 5775 5771 5773 5777 5777 5776 5776
5795 5797 5798 5798 5799 5799 5792 5791 5792 5792 5792 5792 5791 5789 5788 5785 5781 5779 5777 5775 5775 5773 5771 5769 5767 5768 5762 5761 5761 5761 5758 5757 5760 5761 5764 5762 5760 5757 5755 5761 5763 5763 5760 5764 5757 5766 5766 5764 5764